www.pogodaiklimat.ru

Погода и климат >> Архив погоды >> Россия >> Якутия >> Сангар


ПОГОДА в Сангаре

  • Прогноз погоды в Сангаре
  • Монитор погоды в Сангаре

АРХИВ ПОГОДЫ в Сангаре

Время (UTC), дата Ветер
(напр.,м/с)
 
Видим.   Явления Облачность Т
(С)
Тd
(С)
f
(%)
Тe
(С)
Тes
(С)
Комфортность P
(гПа)
Po
(гПа)
Тmin
(С)
Tmax
(С)
R
(мм)
R24
(мм)
S
(см)
06 17.07 ЮЗ 1 50 км в посл. час ливневой дождь 10/1 1000 м
[Sc diur, vesp Ac As Ci sp]
+21.4 +13.0 59 +24 +29 комфорт 1001.5 990.5
09 17.07 З 2 20 км {ливн. осадки} 10/8 1320 м
[Sc diur, vesp Ac und]
+21.8 +16.9 74 +26 +26 душно 998.9 987.9
12 17.07 З 2 50 км в посл. час гроза {ливн. осадки} 6/4 600 м
[Cb calv Ac trans]
+17.2 +15.8 91 +18 +18 999.5 988.3 +22.5 4
15 17.07 СЗ 6-11
{12}
10 км 10/10 480 м
[Cb calv]
+15.2 +12.9 86 +14 +14 998.2 987.0
18 17.07 СЗ 5-10
{11}
20 км 10/10 480 м
[Cb calv]
+14.3 +11.5 83 +13 +13 997.8 986.6
21 17.07 З 4
{11}
50 км 10/6 200 м
[Sc Ac und]
+14.0 +11.4 84 +13 +13 999.9 988.6
00 18.07 СЗ 1 50 км 10/4 1000 м
[Sc Ac und]
+14.5 +11.3 81 +15 +16 1000.6 989.4 +13.7
03 18.07 З 2 50 км 6/4 600 м
[Cb calv Ac lent]
+18.8 +6.6 45 +20 +25 1001.8 990.6
06 18.07 ЮВ 3 50 км 10/6 930 м
[Cb calv Ac und]
+17.6 +4.9 43 +18 +19 1003.7 992.5
09 18.07 В 2 50 км 10/3 600 м
[Sc diur, vesp Ac und]
+15.4 +3.4 45 +15 +16 1006.0 994.7
12 18.07 штиль 0 50 км 10/1 600 м
[Cb cap Ac As]
+13.3 +6.4 63 +13 +13 1007.6 996.2 +19.6
15 18.07 штиль 0 50 км 10/1 1500 м
[Sc Ac und]
+9.1 +6.3 83 +8 +8 1008.4 996.9
18 18.07 штиль 0 50 км 10/0
[Ac und]
+7.6 +4.9 83 +7 +7 1008.6 997.0
21 18.07 С 1 50 км 10/0
[Ac und]
+9.6 +4.9 72 +9 +10 1009.4 997.8
00 19.07 штиль 0 10 км 10/3 1000 м
[Sc Ac und]
+12.8 +2.6 50 +13 +15 1010.1 998.6 +7.5
03 19.07 штиль 0 10 км 10/4 1000 м
[Sc Ac und]
+13.2 +4.0 54 +13 +16 1011.5 1000.1
06 19.07 СВ 2 50 км 8/3 600 м
[Sc Ac trans]
+13.6 0.0 39 +13 +17 1013.3 1001.9
09 19.07 Ю 1 50 км 6/6 1020 м
[Sc]
+15.3 +1.0 38 +16 +18 1013.7 1002.4
12 19.07 СВ 1 50 км 10/4 1000 м
[Sc Ac trans Ci fib]
+13.2 +5.8 61 +14 +14 1016.1 1004.6 +16.1
15 19.07 С 2 20 км 10/0
[Ac trans Ci fib]
+10.1 -0.1 49 +9 +9 1016.8 1005.2
18 19.07 СЗ 2 20 км 10/0
[Ac trans Ci fib]
+9.7 -0.3 50 +9 +9 1017.0 1005.4
21 19.07 С 2 20 км 6/0
[Ac trans Ci fib]
+9.0 +0.6 56 +8 +9 1017.7 1006.0
00 20.07 СЗ 2 20 км ясно +15.4 +2.5 42 +15 +22 1008.1 996.8 +7.1
03 20.07 З 2 10 км 1/1 600 м
[Cu hum]
+18.7 +3.1 35 +19 +30 1018.3 1007.0
06 20.07 З 3 20 км ясно +21.1 +4.9 35 +22 +29 комфорт 1018.1 1006.9
09 20.07 З 2 50 км 6/0
[Ci fib]
+22.0 +6.0 35 +23 +25 комфорт 1017.9 1006.7
12 20.07 З 2 50 км ясно +19.2 +2.3 32 +20 +20 1017.9 1006.7 +22.0
15 20.07 штиль 0 20 км ясно +9.0 +5.7 80 +8 +8 1018.9 1007.3
18 20.07 СВ 2 50 км 3/0
[Ci fib]
+7.4 +5.1 85 +5 +5 1019.7 1007.9
21 20.07 СВ 1 50 км ясно +9.6 +5.2 74 +9 +11 1020.6 1008.9
00 21.07 Ю 1 50 км ясно +15.5 +9.8 69 +16 +24 1020.5 1009.0 +6.9
03 21.07 З 2 50 км ясно +19.1 +10.4 57 +21 +32 комфорт 1019.3 1008.0
06 21.07 З 2 50 км ясно +23.1 +7.2 36 +24 +33 комфорт 1017.2 1006.1
09 21.07 СЗ 4 20 км 1/0
[Ci fib]
+23.9 +7.6 35 +24 +26 комфорт 1015.5 1004.4
12 21.07 СЗ 4 10 км 10/3 1000 м
[Sc Cs]
+19.8 +11.5 59 +21 +21 комфорт 1014.8 1003.6 +24.5
15 21.07 Ю 2 10 км 6/0
[Ci fib]
+16.4 +9.5 64 +17 +17 1014.4 1003.0
18 21.07 штиль 0 20 км ясно +11.1 +6.7 74 +11 +11 1014.1 1002.5
21 21.07 штиль 0 20 км ясно +16.2 +7.4 56 +16 +18 1013.5 1002.2
00 22.07 Ю 1 20 км ясно +20.0 +10.0 53 +22 +31 комфорт 1013.5 1002.3 +9.7
03 22.07 Ю 3 20 км ясно +24.2 +10.8 43 +25 +35 комфорт 1013.1 1002.1
06 22.07 ЮЗ 2 20 км ясно +26.8 +9.7 34 +27 +36 жарко 1011.8 1000.9
09 22.07 З 3 20 км ясно +26.1 +8.9 34 +26 +29 жарко 1011.8 1000.8
12 22.07 С 1 10 км ясно +21.9 +10.7 49 +24 +24 комфорт 1012.1 1001.0 +27.5
15 22.07 Ю 1 20 км 1/0
[Ac cast]
+13.0 +10.3 84 +13 +13 1013.2 1001.8
18 22.07 В 1 20 км ясно +16.6 +1.5 36 +18 +18 1014.0 1002.6
21 22.07 штиль 0 20 км ясно +15.6 +5.1 50 +16 +17 1015.0 1003.6
00 23.07 Ю 1 50 км ясно +20.6 +2.4 30 +22 +30 комфорт 1015.2 1004.0 +12.6
03 23.07 Ю 2 50 км ясно +22.4 +2.0 26 +22 +33 комфорт 1014.3 1003.2
06 23.07 ЮЗ 1 50 км ясно +25.4 +4.9 27 +25 +35 комфорт 1012.8 1001.8
09 23.07 Ю 1 50 км ясно +25.8 +3.4 23 +25 +28 комфорт 1012.1 1001.1
12 23.07 Ю 1 50 км ясно +23.4 +7.6 36 +24 +24 комфорт 1011.8 1000.8 +26.8
15 23.07 ЮВ 1 20 км ясно +13.5 +6.9 64 +14 +14 1012.5 1001.1
18 23.07 СВ 2 50 км ясно +12.0 +2.9 54 +11 +11 1013.5 1002.0
21 23.07 СВ 1 50 км ясно +14.4 +3.1 47 +15 +17 1014.1 1002.6
00 24.07 ЮВ 1 50 км ясно +18.7 +10.6 59 +20 +28 1013.4 1002.2 +10.6
03 24.07 Ю 2 50 км ясно +24.4 +6.5 32 +24 +36 комфорт 1012.6 1001.6

 

Местоположение метеостанции Сангар (Якутия, Россия): широта 63.95 долгота 127.40 высота над уровнем моря 96 м.

В архиве по умолчанию представлена погода в Сангаре за последнюю неделю. Архивные данные за месяц целиком и за предыдущие месяцы, начиная с января 2011 года, Вы можете получить, выбрав интересующий диапазон дат из раскрывающегося списка и нажав кнопку "Ввод!".


*Определитесь, кто Вы:
робот инопланетянин человек

Внимание! Время в таблицах - всемирное. Для получения местного времени необходимо прибавить поправку, которая равна 9 ч.

Смотрите также архив погоды в соседних городах и на ближайших метеорологических станциях:

Погода в Сого-Хае (Якутия, Россия) (61 км)
Погода в Батамае (Якутия, Россия) (109 км)
Погода в Хатырык-Хомо (Якутия, Россия) (127 км)
Погода в Сеген-Кюеле (Якутия, Россия) (142 км)
Погода в Намцах (Якутия, Россия) (175 км)
Погода в Бердигестяхе (Якутия, Россия) (188 км)
Погода в Себян-Кюеле (Якутия, Россия) (195 км)
Погода в Бестяхской Звероферме (Якутия, Россия) (217 км)
Погода в Верхоянском Перевозе (Якутия, Россия) (238 км)
Погода в Якутске (Якутия, Россия) (244 км)

Пояснения к столбцам:

Ветер - указаны скорость ветра в м/с - средняя за 10 мин, порывы в срок и между сроками (в фигурных скобках) и направление, откуда дует ветер: С - северный, СВ - северо-восточный, В - восточный, ЮВ - юго-восточный, Ю - южный, ЮЗ - юго-западный, З - западный, СЗ - северо-западный.
Видимость - горизонтальная дальность видимости в метрах или километрах. При видимости от 1 до 10 км при отсутствии осадков обычно наблюдается дымка, при ухудшении видимости до 1 км и менее - туман. В сухую погоду видимость может ухудшаться дымом, пылью или мглою.
Явления - указаны атмосферные явления, наблюдавшиеся в срок или в последний час перед сроком; фигурными скобками обозначены явления, наблюдавшиеся между сроками (за 1-3 часа до срока); квадратными скобками обозначены град или гололедные отложения с указанием их диаметра в мм.
Облачность - указаны через наклонную черту общая и нижняя облачность в баллах и высота нижней границы облаков в метрах; квадратными скобками обозначены формы облаков: Ci - перистые, Cs - перисто-слоистые, Cc - перисто-кучевые, Ac - высококучевые, As - высокослоистые, Sc - слоисто-кучевые, Ns - слоисто-дождевые, Cu - кучевые, Cb - кучево-дождевые. Подробнее классификацию облаков см. в Атласе облаков (PDF).
T - Температура воздуха - температура, измеренная на высоте 2 м над землей.
Td - Температура точки росы - температура, при понижении до которой содержащийся в воздухе водяной пар достигнет насыщения.
f - Относительная влажность воздуха - влажноcть воздуха, измеренная на высоте 2 м над землей.
Te - Эффективная температура - температура, которую ощущает одетый по сезону человек в тени. Характеристика душности погоды. При расчете учитывается влияние влажности воздуха и скорости ветра на теплоощущения человека.
Tes - Эффективная температура на солнце - температура, которую ощущает человек, с поправкой на солнечный нагрев. Характеристика знойности погоды. Зависит от высоты солнца над горизонтом, облачности и скорости ветра. Ночью, в пасмурную погоду, а также при ветре 12 м/с и более поправка равна нулю.
P - Атмосферное давление - приведенное к уровню моря атмосферное давление.
Po - Атмосферное давление - измеренное на уровне метеостанции атмосферное давление.
Tmin - Минимальная температура - минимум температуры воздуха на высоте 2 м над землей.
Tmax - Максимальная температура - максимум температуры воздуха на высоте 2 м над землей.
R - Количество осадков - Количество выпавших осадков за период времени, мм. При наведении курсора мыши на число - период времени, за который выпало указанное количество осадков.
R24 - Количество осадков - Количество выпавших осадков за 24 часа, мм.
S - Снежный покров - Высота снежного покрова, см. При наведении курсора мыши на число - состояние снежного покрова и степень покрытия местности в баллах.